Temperature
21 20 20 21 26 28 27 27 27 27 26 25 24 25 25 24 24 22 20 19 19 19 19 18 19 19 19 19 19 19 19 19 19 19 19 18 18 18 18 18 18 18 18 18 18 18 18 18 18
20 20 20 24 29 28 27 27 27 27 25 25 25 25 24 23 22 21 20 19 19 19 19 18 19 19 19 19 19 19 18 18 19 19 19 18 18 18 18 18 18 18 18 18 18 18 18 18 18
20 20 24 29 29 28 27 27 27 26 25 25 25 24 24 22 21 20 19 19 19 19 19 18 18 19 19 19 18 19 18 18 19 19 19 19 18 18 18 18 18 18 18 18 18 18 18 18 18
21 23 26 29 28 28 28 28 27 27 26 25 25 24 22 21 20 20 19 19 19 19 19 18 19 19 18 19 18 19 18 18 18 18 18 18 18 18 18 18 18 18 18 18 18 18 18 18 18
22 26 29 29 28 28 29 28 27 27 26 26 25 25 22 20 20 20 19 19 19 19 19 18 19 19 19 18 18 18 18 19 18 18 18 18 18 18 18 18 18 18 18 18 18 18 18 18 18
26 29 30 29 28 29 29 27 27 27 26 25 25 25 22 20 20 20 20 19 19 19 19 18 19 19 19 19 19 19 19 19 19 18 18 18 18 18 18 18 18 18 18 18 18 18 18 18 18
28 30 30 29 29 29 28 27 28 27 27 26 25 25 22 21 20 20 19 19 19 19 19 19 18 19 19 19 19 19 19 19 19 19 18 18 18 18 18 18 18 18 18 18 18 18 18 18 18
27 31 30 30 29 29 28 28 27 27 26 25 25 25 23 20 20 20 20 19 19 19 19 19 19 19 19 18 19 19 19 19 19 19 18 18 18 18 18 18 18 18 18 18 18 18 18 18 18
27 31 30 30 29 29 29 28 27 26 26 25 24 24 22 20 20 20 20 19 19 19 19 19 19 19 19 18 18 18 18 18 18 18 18 18 18 18 18 18 18 18 18 18 18 18 18 18 18
29 31 30 30 30 30 29 28 27 27 26 25 24 22 21 20 20 21 21 20 20 19 19 18 19 19 19 18 18 18 18 18 18 18 18 18 18 18 18 18 18 18 18 18 18 18 18 18 17
30 30 30 30 29 29 29 28 28 28 28 26 24 23 21 21 21 21 21 20 20 19 19 19 18 18 19 18 18 18 18 18 18 18 18 18 18 18 18 18 18 18 18 18 18 18 17 17 17
30 30 30 30 29 29 29 28 28 28 27 26 24 23 22 22 22 21 21 20 20 19 19 19 18 18 18 18 18 18 18 18 18 18 18 18 18 18 18 18 18 18 18 18 18 17 17 17 17
30 30 29 29 29 29 28 28 28 27 26 25 24 23 23 22 22 21 21 20 20 19 19 19 18 18 18 18 18 18 18 18 18 18 18 18 18 18 18 18 18 18 18 18 18 18 17 17 17
30 30 30 29 29 29 29 28 28 27 25 25 24 23 23 23 22 21 20 20 20 19 19 19 18 18 18 18 18 18 18 18 18 18 18 18 18 18 18 18 18 18 18 18 18 17 17 17 17
30 30 30 30 29 29 29 29 29 26 25 25 24 24 23 23 22 21 21 20 20 19 19 18 18 18 18 18 18 18 18 18 18 18 18 18 18 18 18 18 18 18 18 18 18 17 18 18 18
31 31 31 30 30 29 29 29 29 26 26 26 25 24 23 22 22 21 21 20 20 19 19 19 19 18 18 18 18 18 18 18 18 18 18 18 18 18 18 18 18 18 18 18 18 18 18 18 18
32 31 31 30 30 30 30 29 29 27 26 26 25 24 24 23 22 21 21 20 20 19 19 19 19 19 19 18 18 18 18 18 18 18 18 18 18 18 18 18 18 18 18 18 18 18 18 18 17
31 31 31 31 31 30 30 30 29 27 27 27 25 25 24 23 23 22 21 20 20 19 19 19 19 19 19 19 19 18 18 18 18 18 18 18 18 18 18 18 18 18 18 18 18 17 17 17 18
31 31 31 31 31 31 30 30 30 28 27 27 26 25 24 24 23 22 21 20 20 19 19 19 19 19 19 19 19 18 18 18 18 18 18 18 18 18 18 18 18 18 18 18 18 18 18 18 18
31 31 31 31 31 30 30 30 30 29 28 27 26 26 25 24 23 22 21 21 20 20 19 19 19 19 19 19 19 19 18 18 18 18 18 18 18 18 18 18 18 18 18 18 17 17 18 18 18
31 31 31 31 31 31 30 30 30 30 28 27 27 26 26 25 24 22 22 21 20 20 20 20 19 19 19 19 19 19 19 18 18 18 18 18 18 18 18 18 18 18 18 18 18 17 17 18 18
31 32 31 31 31 31 31 30 30 30 29 28 27 27 26 25 24 23 22 21 21 20 20 20 20 20 19 19 19 19 19 19 19 18 18 18 18 18 18 18 18 18 18 18 18 17 17 17 18
31 31 31 31 31 31 31 31 31 31 30 29 29 27 27 26 25 23 23 22 21 21 20 20 20 20 20 19 19 19 19 19 19 18 18 18 18 18 18 18 18 18 18 18 18 18 17 17 18
31 31 31 31 31 30 31 31 31 31 30 30 30 28 27 26 25 24 23 22 22 21 21 20 20 20 20 20 19 19 19 19 19 18 18 18 18 18 18 18 18 18 18 18 18 17 17 17 17
31 31 30 30 30 30 31 30 31 31 31 31 30 28 27 26 25 24 23 22 22 21 21 20 20 20 20 20 19 19 19 19 19 18 18 18 18 18 18 18 18 18 18 18 17 18 17 17 17
31 31 30 29 30 31 30 30 31 31 30 29 29 28 27 26 25 24 23 22 22 21 21 21 20 20 20 20 20 19 19 19 19 19 18 18 18 18 18 18 18 18 18 17 17 17 17 17 17
31 31 32 31 31 30 31 31 31 31 30 30 29 28 27 26 25 24 24 23 22 22 21 21 21 20 20 20 20 19 19 19 19 19 18 18 18 18 18 18 18 18 18 17 17 17 17 17 17
31 31 31 31 29 29 30 30 31 30 30 30 29 28 27 26 25 24 24 23 23 22 22 21 21 21 21 20 20 19 19 19 19 19 19 18 18 18 18 18 18 18 17 17 17 16 17 16 16
30 30 30 31 30 30 30 30 31 30 30 30 29 27 27 26 25 24 24 23 23 22 22 21 21 21 20 20 20 20 19 19 19 19 19 18 18 18 18 18 18 17 17 17 17 16 16 16 16
31 30 30 30 29 30 30 30 31 30 30 29 28 27 26 26 25 24 24 23 23 22 22 21 21 21 20 20 20 20 20 19 19 19 19 19 18 18 18 17 17 17 17 17 16 16 16 16 16
Wind_Speed
12 9 5 4 4 4 11 9 7 7 6 7 7 6 7 8 7 6 4 5 5 6 7 9 7 7 8 8 8 9 9 10 11 12 12 13 14 14 15 16 16 16 16 17 16 15 15 15 15
8 5 4 4 1 9 10 9 9 9 7 5 6 6 7 8 7 5 5 5 5 6 8 9 8 8 8 8 8 9 9 10 11 11 12 12 13 14 14 15 15 15 15 16 15 15 15 14 14
6 5 4 1 7 10 9 8 8 8 6 4 5 6 6 6 6 4 5 5 5 7 9 10 7 8 8 8 8 8 9 10 11 11 12 12 13 13 13 13 14 14 14 14 14 14 14 13 13
4 4 3 4 12 11 8 8 7 6 6 5 5 7 6 6 4 6 7 5 7 7 9 11 8 9 9 9 9 10 10 11 11 12 12 12 13 13 13 12 12 13 13 13 13 14 13 13 12
4 3 2 9 12 10 9 7 5 5 5 5 6 8 8 6 7 8 7 6 7 7 9 11 11 10 10 10 11 11 11 11 11 12 12 12 12 12 12 12 11 12 13 13 13 13 13 12 11
3 2 5 9 11 8 8 6 5 7 7 6 7 8 7 7 7 7 7 6 7 7 8 10 11 11 11 11 11 12 11 11 11 11 12 12 12 11 11 11 11 11 12 12 12 12 11 10 10
4 3 8 9 9 9 7 5 5 6 7 6 5 6 7 8 7 6 7 7 6 7 7 8 9 10 11 11 12 12 12 11 11 11 11 11 11 11 11 10 10 11 11 11 11 11 10 9 9
4 1 7 8 8 9 6 5 5 5 7 6 3 5 7 9 8 7 7 7 7 6 7 7 7 8 8 11 12 12 11 10 10 10 10 10 10 11 10 11 11 10 10 10 10 10 9 9 8
3 1 8 8 7 7 5 5 5 5 7 6 5 7 10 12 9 8 8 7 7 6 6 6 7 7 7 9 11 10 11 10 9 11 9 7 7 8 9 10 10 10 9 9 9 9 9 9 9
2 5 9 7 5 5 5 4 5 5 6 7 9 10 12 11 9 8 8 8 7 7 6 6 6 6 7 7 8 6 7 8 7 7 6 6 6 6 7 11 10 10 9 9 9 9 9 8 7
2 5 6 5 5 4 5 4 4 4 5 6 9 12 12 10 8 7 7 7 8 7 6 6 6 6 6 5 5 5 5 6 6 7 6 5 5 5 6 7 9 9 9 7 8 8 5 4 3
3 4 3 4 4 3 3 4 4 3 5 7 10 12 12 11 9 8 8 7 7 7 6 6 6 6 5 4 4 4 4 4 4 5 4 4 3 3 4 4 5 5 5 5 4 3 4 4 4
2 3 3 3 3 4 4 4 4 5 6 9 11 11 11 10 9 8 8 7 7 7 6 6 5 5 4 3 2 4 4 4 5 4 4 3 3 3 3 3 3 3 4 4 4 3 4 3 3
2 2 3 3 4 4 4 4 4 6 9 11 11 10 10 9 10 9 8 8 7 6 6 5 4 5 4 3 3 3 3 3 3 3 4 2 2 2 2 3 3 3 3 3 3 4 3 2 2
2 3 4 4 2 3 3 4 4 8 10 10 10 9 9 9 9 9 9 8 8 7 6 5 5 5 4 3 3 3 3 3 3 3 3 1 2 2 1 2 2 3 3 4 3 4 3 3 3
4 3 2 3 2 3 4 3 7 9 10 10 9 9 9 9 9 9 9 8 7 7 6 5 5 6 5 3 2 2 2 2 2 2 2 2 2 2 1 1 2 3 3 3 3 2 2 2 2
4 1 1 3 3 3 4 1 7 9 9 9 9 9 9 10 9 9 9 8 8 7 7 6 5 5 5 4 3 2 2 1 1 2 2 2 1 1 1 1 2 2 2 2 2 2 2 2 2
1 1 1 1 2 4 4 1 6 9 9 9 9 9 9 10 11 10 10 9 8 8 7 6 6 5 5 5 4 2 2 2 2 2 2 1 2 1 1 2 1 1 2 2 1 2 1 2 2
4 4 3 1 1 3 4 4 5 9 10 9 9 10 10 10 11 11 11 10 9 8 8 7 6 6 5 4 4 3 3 3 2 2 2 2 1 2 1 1 2 1 1 1 2 2 3 2 2
6 6 3 1 0 3 4 4 4 9 11 10 10 10 11 11 12 12 11 11 10 10 9 8 8 7 6 5 4 3 2 2 2 2 2 2 2 2 2 1 2 1 1 2 2 2 2 2 2
8 7 5 4 3 5 4 4 5 8 10 10 10 10 11 12 13 13 13 12 11 10 10 8 8 8 7 6 5 4 3 3 3 3 3 2 2 2 1 1 1 1 2 1 2 2 3 2 2
8 4 5 5 6 3 5 3 4 7 9 11 12 11 11 12 12 13 13 13 12 11 10 9 8 8 7 7 6 6 5 4 3 3 2 2 2 2 2 2 2 2 1 1 3 2 3 3 2
5 3 5 6 7 7 6 6 2 6 7 10 11 12 12 12 13 13 13 13 12 11 10 10 9 9 8 8 7 7 6 4 4 3 3 3 2 2 2 3 2 2 2 1 2 1 3 2 3
4 5 6 8 8 8 5 6 3 3 5 6 9 11 12 12 12 12 12 12 11 11 10 10 10 9 9 9 8 8 6 5 4 4 4 4 3 2 2 3 2 2 2 2 2 3 3 2 2
9 8 6 7 7 6 3 6 3 1 2 4 6 9 11 11 12 13 13 13 12 12 11 10 10 10 9 9 9 8 8 7 6 5 4 4 3 2 2 2 2 2 2 2 3 3 2 3 3
11 12 8 7 7 5 5 5 2 1 1 3 4 7 10 11 11 12 13 13 12 12 12 11 11 10 10 9 9 8 8 7 5 5 4 4 3 2 2 2 3 3 3 3 2 3 3 3 3
10 11 10 10 9 7 5 4 4 3 3 4 5 7 9 9 10 10 11 12 12 12 12 12 11 10 10 9 9 8 8 7 5 5 5 4 3 3 3 3 3 3 3 3 3 3 3 3 4
9 8 8 9 8 9 7 7 4 3 4 5 6 7 8 9 9 10 9 10 10 11 11 11 11 10 10 9 9 8 8 8 7 6 5 4 4 3 3 4 4 3 3 3 4 4 3 3 3
9 9 8 8 9 9 7 3 1 2 3 4 5 6 7 8 9 9 8 9 9 9 10 10 10 10 9 9 9 8 8 8 7 7 6 6 5 4 4 4 4 4 4 4 4 4 3 4 3
10 11 11 10 8 9 9 4 2 1 2 2 3 5 6 7 8 8 8 8 8 8 9 10 10 10 9 9 9 8 8 7 8 7 7 6 5 5 4 4 4 4 5 5 5 4 4 4 5
Wind_Direction
173 180 207 238 228 82 62 57 59 64 60 55 54 55 56 41 32 69 70 59 67 77 91 96 88 92 99 104 103 101 101 104 108 111 114 118 120 122 122 123 125 125 125 126 127 128 130 131 131
170 185 229 246 31 75 65 57 61 63 78 78 67 63 65 61 56 78 82 80 86 82 86 87 88 90 98 101 103 104 107 108 110 112 116 119 120 121 122 125 126 127 127 128 128 129 130 130 130
179 224 268 315 55 62 66 64 74 84 82 65 66 55 53 63 68 75 86 97 90 81 86 89 92 95 99 100 100 101 106 110 112 114 119 121 122 122 123 124 127 129 130 132 130 130 130 130 128
209 230 236 71 70 65 71 77 87 95 84 71 83 81 72 56 65 91 102 100 89 83 83 89 85 95 102 101 100 102 103 108 112 116 121 125 124 125 125 124 125 130 132 133 133 131 131 131 131
242 260 101 80 74 71 71 72 70 66 73 86 88 92 84 76 91 101 106 96 89 83 84 89 87 94 98 96 99 102 105 108 112 116 120 124 124 126 126 126 127 131 133 132 130 131 133 136 139
253 256 72 77 78 78 75 75 75 74 87 94 99 97 87 108 109 107 101 91 89 90 93 97 96 94 93 93 97 100 103 105 108 114 118 120 124 126 126 127 130 132 133 133 133 133 136 140 140
306 39 73 81 85 81 74 70 67 79 90 89 100 97 110 118 114 114 104 96 91 91 95 97 106 108 105 94 93 96 96 99 105 111 116 118 121 125 127 128 130 132 133 135 135 137 141 141 140
306 26 84 79 78 77 83 80 70 77 88 99 100 100 122 130 133 123 112 102 92 91 94 99 100 101 107 105 98 98 99 101 109 114 116 124 134 131 132 135 132 134 136 136 140 144 144 141 144
275 72 71 65 66 81 98 95 85 97 108 101 86 90 116 134 139 131 120 111 104 98 96 97 99 102 103 99 103 108 110 107 120 117 121 135 126 125 130 119 132 134 135 138 143 147 150 153 150
300 60 62 54 63 86 103 97 110 130 119 115 114 113 127 140 144 139 128 121 115 109 105 102 100 99 101 98 103 102 102 102 98 98 109 111 107 108 111 125 136 138 140 144 149 158 168 180 156
40 60 64 69 74 95 113 111 122 134 112 128 138 140 143 145 146 140 128 124 118 118 113 111 104 97 95 100 98 92 93 98 99 94 99 103 111 114 112 125 139 145 152 146 149 166 161 151 143
82 71 64 77 87 101 109 114 112 98 78 120 138 145 149 151 148 143 135 130 125 123 119 110 109 104 95 88 93 101 98 97 96 98 97 107 101 98 101 118 123 137 136 133 138 135 138 138 145
107 77 80 89 109 110 120 115 105 101 112 130 136 147 152 153 150 144 140 139 137 134 130 120 113 111 108 103 97 97 97 96 100 99 97 93 112 107 112 114 130 133 127 140 141 133 132 143 151
84 107 111 111 113 132 130 120 129 120 135 141 147 152 157 158 154 150 154 152 149 146 143 135 138 132 127 125 110 102 106 107 101 106 102 102 103 103 121 131 133 133 133 119 133 138 139 140 127
160 153 143 131 146 147 166 144 134 139 149 154 156 157 159 162 163 164 162 162 157 153 152 152 154 144 142 138 129 124 121 114 107 105 109 121 116 114 137 119 145 135 140 145 148 145 146 153 155
208 207 139 130 173 170 224 102 129 153 163 164 165 166 169 172 175 172 167 167 162 158 158 162 156 148 150 145 142 126 110 113 122 125 126 127 120 144 173 142 141 151 159 150 150 168 158 153 163
211 223 72 134 178 195 230 108 143 165 175 173 176 177 180 180 182 177 173 172 169 167 167 167 163 161 158 153 159 156 145 138 139 134 134 131 144 151 191 143 112 176 159 153 178 147 169 169 188
260 296 342 11 172 211 230 214 165 181 189 185 184 184 186 187 185 180 180 176 175 175 176 176 174 170 172 170 172 177 169 171 167 154 134 154 154 150 199 151 150 198 157 151 143 153 168 199 208
284 288 305 355 149 235 243 242 191 191 199 194 191 190 190 191 183 180 182 182 181 182 183 186 187 177 182 183 191 183 180 185 178 173 160 178 175 159 197 150 154 215 152 191 193 187 182 204 205
251 266 278 297 179 264 275 258 205 198 204 202 198 196 196 190 182 183 186 188 188 187 188 189 192 188 190 182 192 191 188 189 179 176 163 191 187 193 180 187 211 197 184 200 205 205 228 198 197
248 264 280 289 266 231 262 230 197 195 203 204 207 204 199 194 188 185 189 190 191 193 195 194 194 193 196 190 189 182 182 199 186 187 185 192 193 196 207 206 240 243 244 202 226 221 225 218 206
249 259 269 260 260 259 258 274 188 189 199 206 208 206 203 197 193 189 189 191 193 194 192 195 192 195 196 197 201 201 197 197 199 200 187 188 194 204 207 216 233 254 251 223 241 213 242 239 225
262 258 254 256 261 266 248 268 212 182 205 209 209 207 204 197 194 192 193 192 193 192 191 191 189 193 196 201 201 209 209 205 201 196 181 205 202 212 220 219 230 246 254 250 260 251 258 240 250
207 221 230 238 248 251 255 261 254 201 224 214 204 202 201 196 193 191 190 189 192 191 193 191 188 194 197 202 205 211 211 214 214 213 203 210 201 208 210 216 230 241 255 244 247 249 238 252 266
216 234 235 232 232 241 229 254 265 293 253 229 203 192 190 190 190 188 188 189 192 193 194 192 190 196 199 203 207 210 212 213 217 224 214 229 221 212 198 225 234 247 244 242 242 235 251 243 245
223 236 248 256 252 243 213 245 250 284 254 216 199 183 180 184 188 189 189 191 193 196 197 196 193 196 198 201 204 208 211 215 214 216 228 220 234 232 209 229 236 240 239 242 235 236 231 231 236
225 235 255 262 264 263 241 241 242 225 200 184 175 169 174 180 183 186 188 191 193 197 198 198 194 197 199 200 201 204 209 217 217 209 220 224 225 224 217 229 234 238 235 243 244 238 231 227 233
245 237 237 245 252 254 243 244 256 228 202 182 173 173 174 175 177 179 183 189 192 194 195 198 196 198 199 200 204 201 203 207 210 216 220 227 226 229 225 229 233 233 229 226 231 226 220 220 223
211 218 233 245 254 260 256 247 41 215 202 181 172 175 175 176 175 176 181 185 187 190 191 193 195 198 200 201 202 204 202 202 204 208 215 218 225 223 224 226 223 222 221 220 219 230 214 219 226
224 227 227 237 242 255 268 262 102 157 192 187 167 166 172 176 176 175 176 178 183 189 192 193 196 199 201 200 199 202 204 206 208 206 208 209 213 216 216 219 217 217 216 215 213 220 218 224 229
Height
1504 1504 1505 1506 1500 1495 1502 1501 1499 1500 1504 1507 1508 1507 1508 1510 1511 1520 1522 1519 1519 1518 1518 1516 1514 1514 1514 1514 1515 1516 1516 1517 1517 1518 1519 1520 1522 1524 1526 1527 1529 1531 1532 1534 1536 1538 1539 1541 1543
1505 1505 1507 1504 1494 1503 1507 1501 1502 1504 1508 1509 1510 1510 1510 1514 1517 1520 1521 1521 1521 1520 1519 1517 1516 1515 1516 1516 1516 1516 1517 1518 1519 1520 1521 1522 1524 1526 1528 1530 1531 1533 1534 1536 1538 1539 1541 1543 1545
1506 1506 1507 1496 1496 1503 1508 1503 1505 1508 1510 1510 1511 1512 1514 1518 1521 1522 1522 1522 1522 1521 1520 1518 1516 1516 1517 1517 1517 1517 1518 1519 1520 1521 1523 1524 1526 1528 1530 1532 1533 1535 1537 1538 1539 1541 1542 1545 1546
1508 1508 1504 1496 1501 1501 1502 1504 1506 1508 1510 1512 1512 1514 1519 1522 1523 1523 1523 1524 1524 1523 1522 1519 1516 1515 1517 1518 1517 1518 1518 1519 1521 1523 1525 1526 1528 1530 1532 1534 1535 1537 1538 1539 1541 1542 1544 1546 1548
1508 1504 1497 1498 1501 1502 1502 1506 1507 1507 1510 1512 1513 1516 1521 1525 1525 1525 1525 1526 1526 1525 1524 1521 1518 1518 1519 1519 1519 1520 1520 1521 1523 1525 1527 1528 1530 1532 1534 1535 1537 1538 1540 1541 1543 1544 1546 1548 1550
1507 1498 1498 1504 1505 1503 1505 1508 1508 1509 1512 1514 1515 1517 1524 1526 1526 1527 1527 1527 1527 1527 1526 1524 1523 1522 1522 1522 1522 1522 1523 1524 1525 1527 1528 1530 1532 1533 1535 1537 1539 1540 1541 1543 1544 1546 1547 1549 1550
1505 1496 1499 1501 1504 1504 1507 1509 1509 1510 1512 1515 1517 1519 1524 1527 1528 1528 1528 1529 1529 1529 1528 1528 1528 1527 1526 1525 1525 1525 1526 1526 1528 1529 1531 1532 1533 1535 1537 1538 1540 1542 1543 1545 1546 1547 1549 1550 1552
1506 1497 1497 1499 1503 1506 1508 1510 1512 1512 1515 1518 1519 1519 1524 1528 1529 1530 1530 1530 1530 1530 1531 1530 1531 1530 1530 1529 1528 1528 1529 1529 1530 1531 1533 1534 1535 1537 1538 1540 1541 1543 1544 1546 1547 1548 1550 1551 1552
1506 1497 1500 1500 1503 1505 1508 1510 1513 1515 1517 1519 1521 1522 1525 1528 1529 1531 1531 1532 1532 1532 1533 1533 1533 1533 1533 1533 1532 1532 1532 1532 1533 1534 1535 1537 1538 1539 1540 1540 1542 1544 1546 1547 1548 1550 1551 1552 1553
1503 1499 1502 1501 1503 1505 1509 1510 1513 1514 1516 1519 1522 1525 1527 1529 1530 1532 1532 1533 1534 1534 1535 1535 1535 1536 1536 1536 1536 1536 1537 1537 1537 1538 1539 1539 1539 1540 1540 1539 1542 1545 1547 1548 1549 1551 1552 1554 1555
1502 1501 1502 1504 1505 1507 1508 1511 1513 1512 1513 1518 1521 1525 1528 1530 1531 1533 1534 1535 1536 1536 1537 1537 1537 1537 1538 1538 1539 1539 1540 1539 1540 1540 1540 1541 1541 1541 1541 1541 1544 1546 1548 1550 1551 1552 1554 1555 1556
1504 1504 1505 1505 1508 1508 1509 1510 1512 1513 1516 1519 1522 1525 1528 1530 1532 1533 1535 1536 1537 1538 1538 1539 1539 1539 1539 1540 1541 1541 1542 1542 1543 1542 1543 1544 1544 1543 1543 1543 1545 1548 1549 1550 1552 1553 1554 1555 1556
1504 1505 1506 1507 1508 1509 1510 1511 1513 1516 1519 1521 1523 1526 1528 1530 1532 1534 1536 1537 1538 1539 1540 1540 1540 1540 1541 1541 1542 1543 1544 1544 1544 1544 1545 1545 1546 1545 1546 1546 1547 1549 1550 1551 1552 1553 1554 1555 1556
1505 1506 1507 1508 1509 1510 1510 1512 1514 1517 1520 1522 1524 1526 1528 1530 1532 1534 1536 1537 1539 1540 1541 1541 1541 1542 1542 1543 1544 1544 1546 1545 1546 1546 1546 1546 1547 1546 1547 1547 1547 1549 1550 1552 1552 1554 1554 1555 1556
1506 1505 1505 1507 1508 1509 1511 1511 1513 1517 1520 1522 1524 1526 1529 1531 1533 1534 1536 1538 1539 1540 1541 1541 1542 1543 1543 1544 1545 1546 1547 1547 1548 1547 1547 1547 1548 1547 1547 1548 1548 1549 1550 1551 1553 1554 1555 1555 1556
1502 1501 1504 1505 1507 1509 1510 1512 1512 1517 1519 1521 1524 1526 1528 1531 1532 1534 1536 1537 1539 1540 1541 1542 1544 1544 1544 1545 1545 1547 1548 1548 1548 1548 1548 1548 1548 1548 1548 1548 1548 1549 1551 1552 1552 1554 1554 1555 1556
1499 1502 1504 1505 1505 1506 1507 1508 1511 1516 1518 1520 1522 1525 1527 1530 1532 1534 1536 1537 1538 1540 1541 1542 1543 1544 1545 1546 1546 1547 1547 1548 1548 1549 1549 1548 1548 1548 1549 1549 1549 1549 1551 1552 1553 1553 1554 1554 1555
1505 1502 1503 1504 1502 1504 1505 1505 1509 1514 1515 1518 1521 1523 1525 1527 1530 1532 1534 1536 1538 1539 1540 1542 1543 1543 1545 1546 1546 1547 1548 1548 1549 1549 1548 1548 1549 1549 1549 1549 1549 1550 1551 1551 1552 1552 1552 1553 1554
1500 1501 1503 1501 1500 1502 1503 1503 1505 1510 1512 1515 1518 1520 1523 1525 1528 1531 1533 1535 1537 1538 1539 1541 1542 1543 1544 1545 1546 1547 1548 1548 1549 1549 1549 1549 1549 1549 1549 1550 1549 1550 1550 1550 1551 1552 1552 1553 1553
1500 1503 1501 1500 1499 1502 1501 1501 1501 1506 1509 1512 1515 1517 1520 1523 1526 1529 1532 1534 1535 1537 1538 1539 1541 1542 1543 1544 1545 1546 1547 1548 1548 1548 1548 1548 1548 1549 1549 1549 1550 1550 1550 1550 1550 1550 1551 1552 1552
1498 1500 1500 1502 1500 1498 1501 1501 1500 1502 1506 1510 1512 1514 1517 1520 1523 1527 1529 1532 1534 1535 1537 1539 1539 1541 1542 1543 1545 1546 1546 1547 1548 1548 1548 1548 1548 1548 1548 1548 1549 1549 1550 1550 1549 1550 1550 1551 1551
1499 1494 1497 1499 1501 1500 1500 1507 1498 1497 1501 1505 1508 1511 1514 1517 1520 1523 1526 1529 1531 1533 1535 1537 1538 1539 1541 1542 1544 1545 1545 1546 1546 1547 1547 1548 1548 1548 1548 1548 1548 1548 1549 1548 1548 1549 1549 1549 1550
1494 1494 1495 1497 1499 1500 1497 1502 1496 1493 1497 1499 1503 1506 1510 1514 1517 1520 1523 1526 1529 1531 1533 1534 1536 1537 1539 1540 1541 1543 1544 1545 1546 1546 1546 1546 1547 1547 1547 1547 1547 1547 1547 1547 1547 1547 1547 1548 1549
1495 1496 1496 1495 1494 1508 1500 1503 1500 1489 1492 1493 1497 1502 1506 1510 1514 1517 1521 1524 1527 1529 1531 1533 1533 1535 1537 1538 1540 1540 1542 1543 1544 1544 1545 1545 1546 1546 1546 1545 1545 1545 1546 1545 1545 1546 1546 1546 1546
1494 1499 1507 1510 1508 1505 1495 1499 1496 1486 1488 1490 1493 1498 1502 1507 1510 1514 1517 1520 1523 1526 1528 1530 1531 1533 1535 1536 1537 1538 1539 1540 1541 1542 1543 1544 1545 1544 1544 1544 1544 1544 1543 1543 1544 1543 1544 1544 1544
1492 1493 1507 1516 1511 1500 1497 1498 1489 1485 1488 1491 1493 1496 1500 1504 1507 1511 1514 1517 1520 1523 1525 1528 1529 1530 1532 1534 1535 1536 1537 1539 1540 1540 1541 1542 1543 1543 1542 1542 1542 1542 1542 1542 1542 1542 1542 1542 1543
1490 1490 1485 1493 1496 1502 1495 1490 1485 1484 1487 1489 1492 1495 1498 1501 1505 1508 1511 1514 1517 1519 1522 1524 1526 1528 1529 1531 1532 1533 1535 1536 1537 1538 1538 1540 1540 1540 1540 1540 1540 1540 1540 1540 1540 1540 1540 1540 1541
1485 1484 1489 1494 1509 1510 1500 1494 1489 1486 1485 1487 1490 1493 1497 1500 1503 1506 1509 1512 1514 1517 1519 1521 1523 1525 1526 1528 1530 1531 1532 1533 1534 1535 1536 1537 1537 1537 1537 1537 1537 1537 1537 1537 1537 1538 1537 1538 1539
1489 1489 1488 1489 1491 1503 1505 1495 1478 1481 1483 1485 1489 1492 1495 1498 1501 1503 1506 1509 1512 1514 1516 1518 1520 1522 1523 1525 1527 1528 1529 1530 1531 1532 1533 1534 1534 1534 1534 1534 1534 1534 1534 1535 1535 1536 1536 1536 1536
1481 1483 1486 1495 1498 1494 1495 1493 1477 1480 1482 1485 1488 1492 1494 1497 1499 1502 1504 1507 1509 1512 1514 1515 1517 1518 1520 1522 1523 1525 1526 1528 1529 1529 1530 1530 1531 1531 1531 1531 1530 1531 1531 1532 1532 1532 1533 1534 1534